TimeCST,TemperatureF,Dew PointF,Humidity,Sea Level PressureIn,VisibilityMPH,Wind Direction,Wind SpeedMPH,Gust SpeedMPH,PrecipitationIn,Events,Conditions,WindDirDegrees,DateUTC
12:15 AM,25.3,23.4,92,30.04,10.0,SSE,8.1,-,N/A,,Scattered Clouds,160,2013-02-10 06:15:00
12:35 AM,27.3,26.2,96,30.05,10.0,SSE,11.5,-,N/A,,Mostly Cloudy,160,2013-02-10 06:35:00
12:55 AM,30.4,28.4,92,30.04,10.0,SSE,11.5,-,N/A,,Overcast,160,2013-02-10 06:55:00
1:15 AM,31.5,28.9,90,30.03,10.0,SSE,12.7,-,N/A,,Overcast,150,2013-02-10 07:15:00
1:35 AM,31.3,28.6,90,30.02,10.0,SSE,11.5,-,N/A,,Overcast,160,2013-02-10 07:35:00
1:55 AM,31.6,28.9,90,30.01,10.0,SSE,11.5,-,N/A,,Overcast,160,2013-02-10 07:55:00
2:15 AM,32.0,29.3,90,30.00,10.0,SSE,11.5,-,N/A,,Overcast,160,2013-02-10 08:15:00
2:35 AM,32.0,29.5,90,29.99,10.0,SSE,15.0,-,N/A,,Overcast,160,2013-02-10 08:35:00
2:55 AM,32.5,29.8,90,29.98,10.0,SSE,15.0,-,N/A,,Overcast,160,2013-02-10 08:55:00
3:15 AM,32.7,30.4,91,29.97,10.0,SSE,16.1,-,N/A,,Overcast,160,2013-02-10 09:15:00
3:35 AM,32.9,30.9,92,29.96,10.0,SSE,11.5,-,N/A,,Light Drizzle,160,2013-02-10 09:35:00
3:55 AM,33.3,31.1,92,29.96,10.0,South,13.8,-,N/A,,Drizzle,170,2013-02-10 09:55:00
4:15 AM,33.3,31.1,92,29.95,10.0,SSE,12.7,-,N/A,,Light Drizzle,160,2013-02-10 10:15:00
4:35 AM,33.3,31.5,93,29.94,10.0,SSE,11.5,-,N/A,,Light Drizzle,150,2013-02-10 10:35:00
4:55 AM,33.8,32.0,93,29.95,10.0,South,12.7,-,N/A,,Overcast,170,2013-02-10 10:55:00
5:15 AM,33.8,32.0,93,29.94,7.0,SSE,13.8,-,N/A,,Light Drizzle,160,2013-02-10 11:15:00
5:35 AM,33.8,32.0,93,29.92,7.0,SSE,12.7,19.6,N/A,,Overcast,160,2013-02-10 11:35:00
5:55 AM,33.8,32.2,94,29.90,7.0,SSE,15.0,-,0.02,Rain,Light Rain,150,2013-02-10 11:55:00
6:15 AM,33.8,32.5,95,29.89,5.0,SE,15.0,-,N/A,Rain,Light Rain,140,2013-02-10 12:15:00
6:35 AM,33.8,32.9,96,29.87,5.0,SE,13.8,-,N/A,,Overcast,130,2013-02-10 12:35:00
6:55 AM,33.6,32.9,97,29.85,5.0,ESE,13.8,-,N/A,,Overcast,120,2013-02-10 12:55:00
7:15 AM,34.3,33.8,98,29.84,4.0,SE,18.4,23.0,N/A,,Light Drizzle,140,2013-02-10 13:15:00
7:35 AM,34.5,33.8,97,29.84,5.0,SE,20.7,-,N/A,,Overcast,140,2013-02-10 13:35:00
7:55 AM,34.3,33.8,98,29.84,4.0,SE,17.3,-,N/A,,Drizzle,140,2013-02-10 13:55:00
8:15 AM,34.7,33.8,97,29.84,4.0,SE,17.3,-,N/A,,Overcast,140,2013-02-10 14:15:00
8:35 AM,34.2,33.6,98,29.82,4.0,SE,20.7,-,N/A,,Overcast,140,2013-02-10 14:35:00
8:55 AM,34.3,33.4,97,29.80,4.0,SE,21.9,27.6,N/A,,Light Drizzle,140,2013-02-10 14:55:00
9:15 AM,34.2,33.3,97,29.78,2.0,SE,24.2,29.9,N/A,Rain,Light Rain,130,2013-02-10 15:15:00
9:35 AM,34.3,33.8,98,29.77,3.0,SE,24.2,32.2,N/A,Rain,Rain,130,2013-02-10 15:35:00
9:55 AM,34.7,33.8,97,29.74,2.5,SE,24.2,33.4,0.03,Rain,Rain,130,2013-02-10 15:55:00
10:15 AM,34.7,34.0,97,29.73,3.0,SE,26.5,29.9,0.03,Rain,Light Rain,140,2013-02-10 16:15:00
10:35 AM,34.7,34.0,97,29.71,2.5,SE,26.5,31.1,0.07,Rain,Rain,130,2013-02-10 16:35:00
10:55 AM,35.1,34.3,97,29.70,4.0,SE,24.2,32.2,0.08,Rain,Rain,140,2013-02-10 16:55:00
11:15 AM,35.6,34.7,97,29.67,3.0,SE,27.6,33.4,0.01,Rain,Light Rain,140,2013-02-10 17:15:00
11:35 AM,35.6,34.9,97,29.65,4.0,SE,25.3,32.2,0.01,Rain,Rain,140,2013-02-10 17:35:00
11:55 AM,36.1,35.4,97,29.64,7.0,SE,23.0,28.8,0.01,,Overcast,140,2013-02-10 17:55:00
12:15 PM,36.7,35.8,97,29.60,4.0,SE,27.6,33.4,N/A,,Drizzle,140,2013-02-10 18:15:00
12:35 PM,36.9,36.1,97,29.58,4.0,SE,23.0,28.8,N/A,Rain,Light Rain,140,2013-02-10 18:35:00
12:55 PM,37.6,36.9,97,29.57,4.0,SSE,21.9,28.8,N/A,Rain,Rain,150,2013-02-10 18:55:00
1:15 PM,38.3,37.8,98,29.54,4.0,SSE,25.3,31.1,0.01,Rain,Rain,150,2013-02-10 19:15:00
1:35 PM,39.2,38.5,97,29.53,3.0,SSE,27.6,33.4,0.01,Rain,Light Rain,150,2013-02-10 19:35:00
1:55 PM,39.4,38.7,97,29.52,3.0,SSE,26.5,-,0.01,,Light Drizzle,160,2013-02-10 19:55:00
2:15 PM,40.1,39.2,97,29.50,7.0,SSE,28.8,36.8,N/A,,Overcast,150,2013-02-10 20:15:00
2:35 PM,40.3,39.4,97,29.52,7.0,South,21.9,33.4,N/A,,Overcast,170,2013-02-10 20:35:00
2:55 PM,40.8,39.9,97,29.52,7.0,South,21.9,27.6,N/A,,Drizzle,170,2013-02-10 20:55:00
3:15 PM,41.0,40.1,97,29.50,2.5,South,21.9,27.6,N/A,Rain,Light Rain,170,2013-02-10 21:15:00
3:35 PM,41.0,40.1,97,29.50,1.8,South,20.7,-,N/A,Rain,Light Rain,170,2013-02-10 21:35:00
3:55 PM,40.5,40.1,99,29.49,2.0,SSE,19.6,-,N/A,,Overcast,160,2013-02-10 21:55:00
4:15 PM,40.6,40.3,99,29.49,2.5,South,19.6,24.2,N/A,,Overcast,170,2013-02-10 22:15:00
4:35 PM,41.4,41.0,99,29.48,5.0,South,19.6,25.3,N/A,,Overcast,170,2013-02-10 22:35:00
4:55 PM,42.1,41.5,98,29.48,5.0,South,20.7,26.5,N/A,,Overcast,170,2013-02-10 22:55:00
5:15 PM,42.3,41.9,99,29.48,10.0,South,19.6,25.3,N/A,,Overcast,170,2013-02-10 23:15:00
5:35 PM,42.3,41.7,98,29.48,10.0,South,19.6,-,N/A,,Overcast,170,2013-02-10 23:35:00
5:55 PM,42.3,41.7,98,29.47,10.0,SSE,19.6,-,N/A,,Overcast,160,2013-02-10 23:55:00
6:15 PM,41.9,41.2,97,29.46,7.0,SSE,17.3,-,N/A,,Overcast,160,2013-02-11 00:15:00
6:35 PM,42.8,41.9,97,29.46,10.0,South,18.4,-,N/A,,Overcast,170,2013-02-11 00:35:00
6:55 PM,43.0,41.9,96,29.46,10.0,South,20.7,-,N/A,,Overcast,180,2013-02-11 00:55:00
7:15 PM,43.3,42.1,95,29.46,10.0,South,20.7,-,N/A,,Overcast,180,2013-02-11 01:15:00
7:35 PM,42.8,41.4,95,29.46,10.0,South,17.3,-,N/A,,Scattered Clouds,190,2013-02-11 01:35:00
7:55 PM,42.1,41.0,96,29.46,10.0,SSW,16.1,-,N/A,,Clear,200,2013-02-11 01:55:00
8:15 PM,41.4,40.5,97,29.46,7.0,SSW,17.3,-,N/A,,Clear,200,2013-02-11 02:15:00
8:35 PM,43.0,41.5,95,29.46,10.0,SSW,23.0,28.8,N/A,,Clear,210,2013-02-11 02:35:00
8:55 PM,43.7,39.2,84,29.47,10.0,SW,23.0,28.8,N/A,,Clear,220,2013-02-11 02:55:00
9:15 PM,42.8,37.2,81,29.47,10.0,SW,20.7,-,N/A,,Clear,220,2013-02-11 03:15:00
9:35 PM,42.8,34.2,72,29.47,10.0,SW,27.6,34.5,N/A,,Clear,230,2013-02-11 03:35:00
9:55 PM,43.2,32.9,67,29.47,10.0,SW,29.9,41.4,N/A,,Scattered Clouds,220,2013-02-11 03:55:00
10:15 PM,42.4,33.4,70,29.47,10.0,SW,25.3,31.1,N/A,,Overcast,220,2013-02-11 04:15:00
10:35 PM,41.7,34.2,75,29.48,10.0,SW,24.2,29.9,N/A,,Overcast,230,2013-02-11 04:35:00
11:15 PM,40.1,33.3,77,29.49,10.0,SW,23.0,29.9,N/A,,Overcast,230,2013-02-11 05:15:00
11:35 PM,39.2,33.3,79,29.49,10.0,SW,17.3,24.2,N/A,,Overcast,230,2013-02-11 05:35:00
11:55 PM,39.2,32.9,78,29.50,10.0,WSW,24.2,31.1,N/A,,Overcast,240,2013-02-11 05:55:00